CW2972 Weather Reports


Display with metric or nautical units.
time (UTC)temp
F
wind
direction
speed
MPH
gust
MPH
rain 1hr
in
rain 24hr
in
rain mn
in
humidity
%
barometer
mb
20190217173003 47 251 1.0 7.0 0.00 0.42 0.35 100 1009.0
20190217172803 47 242 0.0 7.0 0.00 0.42 0.35 100 1009.1
20190217172602 47 242 0.0 7.0 0.00 0.43 0.35 100 1009.2
20190217172403 47 224 0.0 5.0 0.00 0.43 0.35 100 1009.2
20190217172203 47 211 0.0 4.0 0.00 0.43 0.35 100 1009.2
20190217172003 47 205 0.0 4.0 0.00 0.43 0.35 100 1009.2
20190217171802 47 196 0.0 4.0 0.00 0.43 0.35 100 1009.1
20190217171603 47 166 0.0 4.0 0.00 0.43 0.35 100 1009.2
20190217171402 46 166 0.0 4.0 0.00 0.43 0.35 100 1009.3
20190217171203 46 150 0.0 4.0 0.00 0.43 0.35 100 1009.2
20190217171003 46 150 0.0 4.0 0.00 0.43 0.35 100 1009.3
20190217170802 46 150 0.0 4.0 0.00 0.43 0.35 100 1009.3
20190217170603 46 150 0.0 3.0 0.00 0.43 0.35 100 1009.3
20190217170403 46 150 0.0 1.0 0.00 0.44 0.35 100 1009.2
20190217170203 46 150 0.0 2.0 0.00 0.44 0.35 100 1009.1
20190217170003 46 150 0.0 2.0 0.00 0.44 0.35 100 1009.2
20190217165802 46 150 0.0 2.0 0.00 0.44 0.35 100 1009.2
20190217165603 46 150 0.0 2.0 0.00 0.44 0.35 100 1009.2
20190217165402 46 150 0.0 2.0 0.00 0.44 0.35 100 1009.2
20190217165203 45 0 0.0 0.0 0.00 0.44 0.35 100 1009.1
20190217165003 45 0 0.0 0.0 0.00 0.44 0.35 100 1009.2
20190217164802 45 0 0.0 0.0 0.00 0.44 0.35 100 1009.2
20190217164603 45 0 0.0 0.0 0.00 0.44 0.35 100 1009.2
20190217164402 45 0 0.0 0.0 0.00 0.44 0.35 100 1009.3
20190217164202 45 0 0.0 0.0 0.00 0.44 0.35 100 1009.4
20190217164002 45 0 0.0 0.0 0.00 0.44 0.35 100 1009.4
20190217163802 45 0 0.0 0.0 0.00 0.44 0.35 100 1009.4
20190217163602 45 0 0.0 0.0 0.00 0.45 0.35 100 1009.4
20190217163402 45 0 0.0 0.0 0.00 0.45 0.35 100 1009.4
20190217163202 45 0 0.0 0.0 0.00 0.45 0.35 100 1009.4
20190217163002 45 0 0.0 0.0 0.00 0.45 0.35 100 1009.3
20190217162802 45 0 0.0 0.0 0.00 0.45 0.35 100 1009.3
20190217162602 45 0 0.0 0.0 0.00 0.45 0.35 100 1009.3
20190217162402 45 0 0.0 0.0 0.00 0.45 0.35 100 1009.3
20190217162202 45 0 0.0 0.0 0.00 0.45 0.35 100 1009.2
20190217162003 45 0 0.0 0.0 0.00 0.45 0.35 100 1009.2
20190217161803 45 0 0.0 0.0 0.00 0.45 0.35 100 1009.1
20190217161603 45 0 0.0 0.0 0.00 0.45 0.35 100 1009.0
20190217161403 44 0 0.0 0.0 0.00 0.45 0.35 100 1009.0
20190217161203 44 0 0.0 0.0 0.00 0.45 0.35 100 1009.1
20190217161003 44 0 0.0 0.0 0.00 0.46 0.35 100 1009.0
20190217160802 44 0 0.0 0.0 0.00 0.46 0.35 100 1009.0
20190217160602 44 0 0.0 0.0 0.00 0.46 0.35 100 1009.0
20190217160402 44 0 0.0 0.0 0.00 0.46 0.35 100 1009.2
20190217160202 44 0 0.0 0.0 0.00 0.46 0.35 100 1009.2
20190217160002 44 0 0.0 0.0 0.00 0.46 0.35 100 1009.3
20190217155802 44 0 0.0 0.0 0.00 0.46 0.35 100 1009.2
20190217155602 43 0 0.0 0.0 0.00 0.46 0.35 100 1009.3
20190217155402 43 0 0.0 0.0 0.00 0.46 0.35 100 1009.1
20190217155203 43 0 0.0 0.0 0.00 0.46 0.35 100 1009.2
20190217155002 43 0 0.0 0.0 0.00 0.46 0.35 100 1009.1
20190217154802 43 0 0.0 0.0 0.00 0.46 0.35 100 1009.2
20190217154602 43 0 0.0 0.0 0.00 0.46 0.35 100 1009.2
20190217154402 43 0 0.0 0.0 0.00 0.46 0.35 100 1009.0
20190217154203 43 0 0.0 0.0 0.00 0.46 0.35 100 1009.0
20190217154002 43 0 0.0 0.0 0.00 0.46 0.35 100 1009.2
20190217153802 43 0 0.0 0.0 0.00 0.46 0.35 100 1008.9
20190217153603 43 0 0.0 0.0 0.00 0.46 0.35 100 1009.0
20190217153403 43 0 0.0 0.0 0.00 0.46 0.35 100 1009.1
20190217153203 43 0 0.0 0.0 0.00 0.46 0.35 100 1009.0
20190217153004 43 0 0.0 0.0 0.00 0.46 0.35 100 1009.0
20190217152803 42 0 0.0 0.0 0.00 0.46 0.35 100 1009.0
20190217152603 42 0 0.0 0.0 0.00 0.46 0.35 100 1008.9
20190217152403 42 0 0.0 0.0 0.00 0.46 0.35 100 1009.2
20190217152203 42 0 0.0 0.0 0.00 0.46 0.35 100 1009.3
20190217152003 42 0 0.0 0.0 0.00 0.46 0.35 100 1009.4
20190217151802 42 0 0.0 0.0 0.00 0.46 0.35 100 1009.4
20190217151603 42 0 0.0 0.0 0.00 0.46 0.35 100 1009.5
20190217151403 42 0 0.0 0.0 0.00 0.46 0.35 100 1009.4
20190217151203 42 0 0.0 0.0 0.00 0.46 0.35 100 1009.4
20190217151003 42 0 0.0 0.0 0.00 0.46 0.35 100 1009.4
20190217150803 42 0 0.0 0.0 0.00 0.46 0.35 100 1009.4
20190217150603 42 0 0.0 0.0 0.00 0.46 0.35 100 1009.2
20190217150404 42 0 0.0 0.0 0.00 0.46 0.35 100 1009.2
20190217150203 42 0 0.0 0.0 0.00 0.46 0.35 100 1009.0
20190217150003 42 0 0.0 0.0 0.00 0.46 0.35 100 1008.9
20190217145803 42 0 0.0 0.0 0.00 0.46 0.35 100 1008.8
20190217145603 42 0 0.0 0.0 0.00 0.46 0.35 100 1008.8
20190217145403 42 0 0.0 0.0 0.00 0.46 0.35 100 1008.8
20190217145203 41 0 0.0 0.0 0.00 0.46 0.35 100 1008.7
20190217145003 41 0 0.0 0.0 0.00 0.46 0.35 100 1008.7
20190217144803 41 0 0.0 0.0 0.00 0.46 0.35 100 1008.7
20190217144603 41 0 0.0 0.0 0.00 0.46 0.35 100 1008.7
20190217144403 41 0 0.0 0.0 0.00 0.46 0.35 100 1008.7
20190217144203 41 0 0.0 0.0 0.00 0.46 0.35 100 1008.8
20190217144003 41 0 0.0 0.0 0.00 0.46 0.35 100 1008.8
20190217143803 41 0 0.0 0.0 0.00 0.46 0.35 100 1008.9
20190217143603 41 0 0.0 0.0 0.00 0.46 0.35 100 1008.8
20190217143403 41 0 0.0 0.0 0.00 0.46 0.35 100 1008.9
20190217143203 41 0 0.0 0.0 0.00 0.46 0.35 100 1008.9
20190217143003 41 0 0.0 0.0 0.00 0.46 0.35 100 1008.9
20190217142803 41 0 0.0 0.0 0.01 0.46 0.35 100 1009.0
20190217142603 41 0 0.0 0.0 0.01 0.46 0.35 100 1009.0
20190217142403 41 0 0.0 0.0 0.01 0.46 0.35 100 1008.9
20190217142203 41 0 0.0 0.0 0.01 0.46 0.35 100 1009.0
20190217142003 41 0 0.0 0.0 0.01 0.46 0.35 100 1008.9
20190217141803 41 0 0.0 0.0 0.02 0.46 0.35 100 1009.0
20190217141603 41 0 0.0 0.0 0.02 0.46 0.35 100 1008.9
20190217141402 40 0 0.0 0.0 0.03 0.46 0.35 100 1009.0
20190217141202 40 0 0.0 0.0 0.04 0.46 0.35 100 1009.0
20190217141002 40 0 0.0 0.0 0.07 0.46 0.35 100 1009.0
20190217140802 40 0 0.0 0.0 0.13 0.46 0.35 100 1009.0
20190217140602 40 0 0.0 0.0 0.13 0.46 0.35 100 1009.0
20190217140402 40 0 0.0 0.0 0.13 0.46 0.35 100 1008.9
20190217140202 40 0 0.0 0.0 0.13 0.46 0.35 100 1009.0
20190217140002 40 0 0.0 0.0 0.14 0.46 0.35 100 1009.1
20190217135802 40 0 0.0 0.0 0.14 0.46 0.35 100 1009.1
20190217135602 40 0 0.0 0.0 0.14 0.46 0.35 100 1009.1
20190217135402 40 0 0.0 0.0 0.14 0.46 0.35 100 1009.3
20190217135203 40 0 0.0 0.0 0.14 0.46 0.35 100 1009.3
20190217135002 40 0 0.0 0.0 0.15 0.46 0.35 100 1009.3
20190217134803 40 0 0.0 0.0 0.15 0.46 0.35 100 1009.3
20190217134602 40 0 0.0 0.0 0.16 0.46 0.35 100 1009.3
20190217134402 40 0 1.0 0.0 0.16 0.46 0.35 100 1009.3
20190217134203 40 150 1.0 4.0 0.16 0.46 0.35 100 1009.4
20190217134002 40 150 1.0 5.0 0.16 0.46 0.35 100 1009.3
20190217133802 40 150 1.0 5.0 0.16 0.46 0.35 100 1009.2
20190217133603 40 150 1.0 5.0 0.16 0.46 0.35 100 1009.0
20190217133402 40 151 1.0 5.0 0.16 0.46 0.35 100 1008.8
20190217133202 40 151 1.0 5.0 0.16 0.46 0.35 100 1008.7
20190217133003 40 151 0.0 5.0 0.15 0.45 0.34 100 1008.6
20190217132803 40 152 0.0 5.0 0.15 0.45 0.34 100 1008.4
20190217132603 40 152 0.0 5.0 0.15 0.45 0.34 100 1008.4
20190217132403 40 159 0.0 1.0 0.15 0.45 0.34 100 1008.3
20190217132203 39 0 0.0 0.0 0.15 0.45 0.34 100 1008.6
20190217132002 39 0 0.0 0.0 0.14 0.44 0.33 100 1008.9
20190217131803 39 0 0.0 0.0 0.14 0.44 0.33 100 1009.0
20190217131602 39 173 0.0 3.0 0.14 0.44 0.33 100 1009.4
20190217131402 39 173 0.0 3.0 0.13 0.43 0.32 100 1009.9
20190217131203 39 173 0.0 3.0 0.12 0.42 0.31 100 1009.5
20190217131003 39 173 0.0 3.0 0.09 0.39 0.28 100 1010.1
20190217130803 39 173 0.0 3.0 0.03 0.33 0.22 100 1010.5
20190217130603 39 0 0.0 0.0 0.04 0.33 0.22 100 1009.6
20190217130403 39 0 0.0 0.0 0.04 0.33 0.22 100 1008.9
20190217130203 39 0 0.0 0.0 0.05 0.33 0.22 100 1008.6
20190217130004 39 0 0.0 0.0 0.04 0.32 0.21 100 1008.5
20190217125803 39 0 0.0 0.0 0.05 0.32 0.21 100 1008.6
20190217125603 39 0 0.0 0.0 0.05 0.32 0.21 100 1008.8
20190217125403 39 0 0.0 0.0 0.06 0.32 0.21 100 1008.7
20190217125203 39 0 0.0 0.0 0.06 0.32 0.21 100 1008.7
20190217125003 39 0 0.0 0.0 0.05 0.31 0.20 100 1008.6
20190217124803 39 0 0.0 0.0 0.06 0.31 0.20 100 1009.3
20190217124603 39 0 0.0 0.0 0.06 0.30 0.19 100 1009.3
20190217124403 39 0 0.0 0.0 0.07 0.30 0.19 100 1009.6
20190217124203 39 0 0.0 0.0 0.07 0.30 0.19 100 1009.7
20190217124003 39 0 0.0 0.0 0.08 0.30 0.19 100 1009.3
20190217123803 39 0 0.0 0.0 0.08 0.30 0.19 100 1009.1
20190217123603 39 0 0.0 0.0 0.09 0.30 0.19 100 1008.9
20190217123403 39 0 0.0 0.0 0.10 0.30 0.19 100 1008.9
20190217123203 39 0 0.0 0.0 0.10 0.30 0.19 100 1009.0
20190217123003 39 0 0.0 0.0 0.11 0.30 0.19 100 1009.0
20190217122803 39 0 0.0 0.0 0.11 0.30 0.19 100 1009.0
20190217122603 39 0 0.0 0.0 0.12 0.30 0.19 100 1009.0
20190217122404 39 0 0.0 0.0 0.12 0.30 0.19 100 1009.0
20190217122203 39 0 0.0 0.0 0.12 0.30 0.19 100 1008.9
20190217122003 39 0 0.0 0.0 0.12 0.30 0.19 100 1008.9
20190217121803 39 0 0.0 0.0 0.12 0.30 0.19 100 1008.7
20190217121602 39 0 0.0 0.0 0.12 0.30 0.19 100 1008.6
20190217121403 39 0 0.0 0.0 0.12 0.30 0.19 100 1008.8
20190217121203 39 0 0.0 0.0 0.12 0.30 0.19 100 1008.8
20190217121003 39 0 0.0 0.0 0.12 0.30 0.19 100 1008.9
20190217120803 39 0 0.0 0.0 0.11 0.29 0.18 100 1008.9
20190217120603 39 0 0.0 0.0 0.12 0.29 0.18 100 1009.0
20190217120403 39 0 0.0 0.0 0.12 0.29 0.18 100 1008.9
20190217120203 39 0 0.0 0.0 0.12 0.28 0.17 100 1009.1
20190217120003 39 130 0.0 1.0 0.11 0.27 0.16 100 1009.3
20190217115803 39 130 0.0 1.0 0.11 0.27 0.16 100 1009.4
20190217115603 39 130 0.0 1.0 0.11 0.27 0.16 100 1009.2
20190217115403 39 130 0.0 1.0 0.10 0.26 0.15 100 1009.3
20190217115203 39 130 0.0 1.0 0.10 0.26 0.15 100 1009.4
20190217115003 39 0 0.0 0.0 0.09 0.25 0.14 100 1009.0
20190217114803 39 0 0.0 0.0 0.08 0.24 0.13 100 1009.2
20190217114603 39 0 0.0 0.0 0.08 0.24 0.13 100 1009.2
20190217114403 39 0 0.0 0.0 0.07 0.23 0.12 100 1009.7
20190217114204 39 0 0.0 0.0 0.07 0.23 0.12 100 1010.0
20190217114004 39 0 0.0 0.0 0.06 0.22 0.11 100 1009.8
20190217113803 39 0 0.0 0.0 0.05 0.21 0.10 100 1009.8
20190217113603 39 0 0.0 0.0 0.05 0.21 0.10 100 1009.6
20190217113402 39 0 0.0 0.0 0.04 0.20 0.09 100 1009.1
20190217113202 39 0 0.0 0.0 0.03 0.19 0.08 100 1009.2
20190217113002 39 0 0.0 0.0 0.03 0.19 0.08 100 1009.4
20190217112802 39 0 0.0 0.0 0.02 0.18 0.07 100 1009.4
20190217112602 39 0 0.0 0.0 0.02 0.18 0.07 100 1009.1
20190217112403 39 130 0.0 1.0 0.02 0.18 0.07 100 1009.0
20190217112202 39 130 0.0 3.0 0.02 0.18 0.07 100 1008.9
20190217112002 39 130 0.0 3.0 0.02 0.18 0.07 100 1009.1
20190217111804 39 130 0.0 3.0 0.02 0.18 0.07 100 1009.2
20190217111603 39 130 1.0 3.0 0.02 0.18 0.07 100 1009.1
20190217111403 38 130 1.0 3.0 0.02 0.18 0.07 100 1008.9
20190217111203 38 123 1.0 3.0 0.02 0.18 0.07 100 1008.9
20190217111003 38 114 2.0 5.0 0.02 0.18 0.07 100 1009.1
20190217110803 38 85 2.0 5.0 0.02 0.18 0.07 100 1008.4
20190217110603 38 9 2.0 11.0 0.01 0.17 0.06 100 1008.0
20190217110403 38 4 2.0 11.0 0.01 0.17 0.06 100 1008.2
20190217110203 38 358 1.0 11.0 0.00 0.16 0.05 100 1008.6
20190217110004 38 358 1.0 11.0 0.00 0.16 0.05 100 1009.9
20190217105803 38 9 1.0 11.0 0.00 0.16 0.05 100 1010.2
20190217105603 38 52 1.0 8.0 0.00 0.16 0.05 100 1009.4
20190217105403 38 98 1.0 7.0 0.00 0.16 0.05 100 1008.4
20190217105203 38 100 1.0 7.0 0.00 0.16 0.05 100 1008.2
20190217105003 38 102 1.0 7.0 0.00 0.16 0.05 100 1008.1
20190217104803 38 106 0.0 5.0 0.00 0.16 0.05 100 1008.2
20190217104603 38 106 0.0 5.0 0.00 0.16 0.05 100 1008.2
20190217104404 38 107 0.0 5.0 0.00 0.16 0.05 100 1008.0
20190217104203 38 107 0.0 4.0 0.00 0.16 0.05 100 1008.1
20190217104003 38 107 0.0 4.0 0.00 0.16 0.05 100 1008.4
20190217103803 38 109 0.0 4.0 0.00 0.16 0.05 100 1008.4
20190217103603 38 110 0.0 3.0 0.01 0.16 0.05 100 1008.4
20190217103403 38 109 0.0 3.0 0.01 0.16 0.05 100 1008.4
20190217103203 38 109 0.0 3.0 0.01 0.16 0.05 100 1008.5
20190217103003 38 109 0.0 3.0 0.01 0.16 0.05 100 1008.6
20190217102803 38 102 0.0 3.0 0.01 0.16 0.05 100 1008.5
20190217102603 38 98 0.0 3.0 0.01 0.16 0.05 100 1008.3
20190217102404 38 98 0.0 3.0 0.01 0.16 0.05 100 1008.3
20190217102203 38 99 1.0 3.0 0.02 0.16 0.05 100 1008.4
20190217102003 38 100 1.0 3.0 0.02 0.16 0.05 100 1008.4
20190217101803 38 93 1.0 5.0 0.02 0.16 0.05 100 1008.3
20190217101603 38 90 1.0 5.0 0.02 0.16 0.05 100 1008.6
20190217101403 38 87 1.0 5.0 0.03 0.16 0.05 100 1008.6
20190217101204 38 84 1.0 5.0 0.03 0.16 0.05 100 1008.6
20190217101003 38 82 1.0 5.0 0.04 0.16 0.05 100 1008.7
20190217100804 38 82 1.0 5.0 0.04 0.16 0.05 100 1008.7
20190217100604 38 83 0.0 5.0 0.05 0.16 0.05 100 1008.6
20190217100403 38 85 0.0 5.0 0.05 0.16 0.05 100 1008.5
20190217100203 38 86 0.0 5.0 0.05 0.16 0.05 100 1008.3
20190217100004 38 85 0.0 3.0 0.05 0.16 0.05 100 1008.5
20190217095803 38 85 0.0 3.0 0.05 0.16 0.05 100 1008.8
20190217095605 38 85 0.0 3.0 0.05 0.16 0.05 100 1009.0
20190217095403 38 85 0.0 3.0 0.05 0.16 0.05 100 1009.1
20190217095203 38 85 1.0 3.0 0.05 0.16 0.05 100 1009.0
20190217095004 38 85 1.0 3.0 0.05 0.16 0.05 100 1009.0
20190217094803 38 85 1.0 3.0 0.05 0.16 0.05 100 1009.0
20190217094603 38 84 1.0 6.0 0.05 0.16 0.05 100 1008.8
20190217094403 38 80 1.0 6.0 0.05 0.16 0.05 100 1008.7
20190217094204 38 80 0.0 6.0 0.05 0.16 0.05 100 1008.5
20190217094003 38 77 1.0 6.0 0.05 0.16 0.05 100 1008.7
20190217093803 38 72 1.0 6.0 0.05 0.16 0.05 100 1008.7
20190217093603 38 68 1.0 4.0 0.04 0.15 0.04 100 1008.8
20190217093404 38 68 1.0 5.0 0.04 0.15 0.04 100 1009.2
20190217093204 38 68 1.0 5.0 0.04 0.15 0.04 100 1009.3
20190217093004 38 68 1.0 5.0 0.04 0.15 0.04 100 1009.1
20190217092803 38 68 1.0 7.0 0.04 0.15 0.04 100 1009.5
20190217092603 38 68 1.0 7.0 0.04 0.15 0.04 100 1009.7
20190217092404 38 69 1.0 7.0 0.04 0.15 0.04 100 1009.8
20190217092203 39 69 0.0 7.0 0.03 0.14 0.03 100 1009.9
20190217092003 39 69 0.0 7.0 0.03 0.14 0.03 100 1010.0
20190217091803 39 69 0.0 5.0 0.03 0.14 0.03 100 1010.0
20190217091603 39 69 0.0 4.0 0.03 0.14 0.03 100 1010.2
20190217091403 39 69 0.0 3.0 0.02 0.13 0.02 100 1010.2
20190217091203 39 0 0.0 0.0 0.02 0.13 0.02 99 1010.1
20190217091003 39 0 1.0 0.0 0.01 0.12 0.01 99 1010.3
20190217090803 39 0 1.0 0.0 0.01 0.12 0.01 99 1010.0
20190217090603 39 69 1.0 5.0 0.00 0.11 0.00 99 1010.6
20190217090403 39 72 1.0 5.0 0.00 0.11 0.00 99 1010.8
20190217090203 39 72 1.0 5.0 0.00 0.11 0.00 99 1010.2
20190217090003 39 73 1.0 5.0 0.00 0.11 0.00 99 1009.7
20190217085803 39 75 1.0 5.0 0.00 0.11 0.00 98 1009.4
20190217085603 39 78 1.0 5.0 0.00 0.11 0.00 98 1009.3
20190217085404 39 76 1.0 7.0 0.00 0.11 0.00 98 1009.3
20190217085203 39 78 1.0 7.0 0.00 0.11 0.00 98 1009.2
20190217085004 39 78 1.0 7.0 0.00 0.11 0.00 98 1009.2
20190217084803 39 80 1.0 7.0 0.00 0.11 0.00 98 1009.1
20190217084604 39 79 1.0 7.0 0.00 0.11 0.00 98 1009.2
20190217084403 39 90 1.0 5.0 0.00 0.11 0.00 98 1009.2
20190217084204 39 90 1.0 3.0 0.00 0.11 0.00 98 1009.2
20190217084004 39 89 1.0 5.0 0.00 0.11 0.00 97 1009.2
20190217083804 39 86 1.0 5.0 0.00 0.11 0.00 97 1009.3
20190217083604 39 83 1.0 5.0 0.00 0.11 0.00 97 1009.6
20190217083403 39 82 0.0 5.0 0.00 0.11 0.00 97 1009.7
20190217083204 39 83 0.0 5.0 0.00 0.11 0.00 94 1009.6
20190217083004 39 79 0.0 5.0 0.00 0.11 0.00 97 1009.5
20190217082804 39 79 1.0 4.0 0.00 0.11 0.00 97 1009.5
20190217082603 39 84 1.0 3.0 0.00 0.11 0.00 97 1009.4
20190217082403 39 75 1.0 5.0 0.00 0.11 0.00 96 1009.5
20190217082203 39 71 1.0 5.0 0.00 0.11 0.00 96 1009.6
20190217082003 39 63 1.0 5.0 0.00 0.11 0.00 96 1009.7
20190217081803 39 62 1.0 5.0 0.00 0.11 0.00 96 1009.8
20190217081604 39 62 1.0 5.0 0.00 0.11 0.00 96 1009.7
20190217081403 39 56 0.0 5.0 0.00 0.11 0.00 96 1009.7
20190217081203 39 57 0.0 5.0 0.00 0.11 0.00 96 1010.0
20190217081003 39 68 1.0 4.0 0.00 0.11 0.00 96 1009.8
20190217080803 39 68 1.0 4.0 0.00 0.11 0.00 96 1009.8
20190217080604 39 69 1.0 4.0 0.00 0.11 0.00 96 1009.8
20190217080404 39 69 1.0 4.0 0.00 0.11 0.00 96 1009.9
20190217080204 39 69 1.0 4.0 0.00 0.11 0.00 96 1010.1
20190217080005 39 70 1.0 7.0 0.00 0.11 0.00 96 1010.4
20190217075805 39 72 1.0 7.0 0.00 0.11 0.00 96 1010.6
20190217075604 39 73 0.0 7.0 0.00 0.11 0.00 96 1010.4
20190217075404 39 75 0.0 7.0 0.00 0.11 0.00 96 1010.3
20190217075204 39 75 0.0 7.0 0.00 0.11 0.00 96 1010.3
20190217075004 39 99 0.0 3.0 0.00 0.11 0.00 96 1010.4
20190217074804 39 99 0.0 1.0 0.00 0.11 0.00 96 1010.5
20190217074604 39 99 0.0 3.0 0.00 0.11 0.00 96 1010.5
20190217074404 39 104 0.0 5.0 0.00 0.11 0.00 96 1010.5
20190217074203 39 109 0.0 5.0 0.00 0.11 0.00 96 1010.5
20190217074003 39 109 0.0 5.0 0.00 0.11 0.00 96 1010.6
20190217073803 39 109 0.0 5.0 0.00 0.11 0.00 96 1010.5
20190217073604 39 116 0.0 5.0 0.00 0.11 0.00 96 1010.5
20190217073404 39 135 0.0 2.0 0.00 0.11 0.00 95 1010.6
20190217073204 39 0 0.0 0.0 0.00 0.11 0.00 95 1010.7
20190217073004 39 0 0.0 0.0 0.00 0.11 0.00 95 1010.8
20190217072804 39 0 0.0 0.0 0.00 0.12 0.00 95 1010.9
20190217072604 39 0 0.0 0.0 0.00 0.12 0.00 95 1011.0
20190217072404 39 0 0.0 0.0 0.00 0.12 0.00 95 1011.0
20190217072204 39 0 0.0 0.0 0.00 0.12 0.00 95 1011.1
20190217072003 39 0 0.0 0.0 0.00 0.12 0.00 95 1011.0
20190217071803 39 0 0.0 0.0 0.00 0.12 0.00 95 1010.9
20190217071603 39 0 0.0 0.0 0.00 0.12 0.00 95 1010.8
20190217071403 39 0 0.0 0.0 0.00 0.12 0.00 95 1010.7
20190217071204 39 0 0.0 0.0 0.00 0.12 0.00 95 1010.6
20190217071004 39 0 0.0 0.0 0.00 0.12 0.00 95 1010.6
20190217070803 39 0 0.0 0.0 0.00 0.12 0.00 95 1010.4
20190217070603 39 0 0.0 0.0 0.00 0.12 0.00 95 1010.5
20190217070403 39 0 0.0 0.0 0.00 0.12 0.00 95 1010.6
20190217070203 39 135 0.0 1.0 0.00 0.12 0.00 95 1010.7
20190217065946 39 135 0.0 1.0 0.00 0.12 0.00 94 1010.5
20190217065746 39 135 0.0 2.0 0.00 0.12 0.00 94 1010.5
20190217065546 39 135 0.0 2.0 0.00 0.12 0.00 94 1010.7
20190217065346 39 135 0.0 2.0 0.00 0.12 0.00 94 1010.9
20190217065146 39 135 1.0 2.0 0.00 0.12 0.00 94 1011.0
20190217064946 38 132 1.0 4.0 0.00 0.12 0.00 94 1010.7
20190217064746 38 130 1.0 4.0 0.00 0.12 0.00 94 1010.6
20190217064546 38 119 1.0 6.0 0.00 0.12 0.00 94 1010.7
20190217064347 38 119 1.0 9.0 0.00 0.12 0.00 93 1010.5
20190217064146 38 117 0.0 9.0 0.00 0.12 0.00 93 1010.3
20190217063946 38 113 0.0 9.0 0.00 0.12 0.00 93 1010.3
20190217063746 38 110 0.0 9.0 0.00 0.12 0.00 93 1010.3
20190217063546 38 112 0.0 9.0 0.00 0.12 0.00 93 1010.1
20190217063346 38 95 0.0 6.0 0.00 0.12 0.00 93 1010.1
20190217063146 38 98 0.0 6.0 0.00 0.12 0.00 93 1010.2
20190217062946 38 100 0.0 6.0 0.00 0.12 0.00 93 1010.2
20190217062746 38 114 1.0 6.0 0.00 0.12 0.00 93 1010.1
20190217062546 38 119 1.0 6.0 0.00 0.12 0.00 93 1010.1
20190217062346 38 124 1.0 6.0 0.00 0.12 0.00 93 1010.0
20190217062145 38 116 1.0 6.0 0.00 0.12 0.00 93 1010.0
20190217061946 38 114 1.0 6.0 0.00 0.12 0.00 93 1010.0
20190217061746 38 111 1.0 6.0 0.00 0.12 0.00 93 1009.9
20190217061546 38 98 2.0 7.0 0.00 0.12 0.00 93 1010.0
20190217061346 38 88 2.0 7.0 0.00 0.12 0.00 92 1010.0
20190217061146 38 87 2.0 7.0 0.00 0.12 0.00 92 1010.1
20190217060946 38 87 2.0 7.0 0.00 0.12 0.00 92 1010.0
20190217060746 38 86 1.0 7.0 0.00 0.12 0.00 92 1010.0
20190217060546 38 88 1.0 7.0 0.00 0.12 0.00 92 1010.0
20190217060346 38 93 1.0 7.0 0.00 0.12 0.00 92 1010.0
20190217060145 38 92 0.0 7.0 0.00 0.12 0.00 92 1010.1
20190217055956 38 92 0.0 6.0 0.00 0.12 0.00 92 1010.2
20190217055745 38 94 0.0 6.0 0.00 0.12 0.12 92 1010.1
20190217055546 38 94 0.0 5.0 0.00 0.12 0.12 92 1010.4
20190217055346 38 97 0.0 5.0 0.00 0.12 0.12 92 1010.8
20190217055146 38 98 0.0 6.0 0.00 0.12 0.12 92 1010.9
20190217054946 38 97 0.0 6.0 0.00 0.12 0.12 92 1010.7
20190217054745 38 92 0.0 6.0 0.00 0.12 0.12 92 1010.8
20190217054545 38 79 0.0 6.0 0.00 0.13 0.12 92 1010.8
20190217054345 38 79 0.0 6.0 0.00 0.13 0.12 92 1010.9
20190217054146 38 74 0.0 4.0 0.00 0.13 0.12 91 1011.1
20190217053946 38 74 0.0 4.0 0.00 0.13 0.12 91 1011.3
20190217053745 38 73 0.0 4.0 0.00 0.13 0.12 91 1011.4
20190217053545 38 81 0.0 3.0 0.00 0.13 0.12 91 1011.3
20190217053345 38 81 0.0 3.0 0.00 0.13 0.12 91 1011.6
20190217053145 38 81 0.0 3.0 0.00 0.13 0.12 91 1011.7
20190217052946 38 82 0.0 6.0 0.00 0.13 0.12 91 1011.6
20190217052745 38 83 0.0 6.0 0.00 0.13 0.12 91 1011.7
20190217052545 38 85 0.0 6.0 0.00 0.14 0.12 90 1011.8
20190217052346 38 85 0.0 6.0 0.00 0.14 0.12 90 1012.1
20190217052146 38 86 0.0 6.0 0.00 0.14 0.12 90 1012.2
20190217051946 38 88 0.0 5.0 0.00 0.14 0.12 90 1012.2
20190217051746 38 88 0.0 5.0 0.00 0.14 0.12 91 1012.3
20190217051546 38 92 0.0 1.0 0.00 0.14 0.12 91 1012.2
20190217051345 38 0 0.0 0.0 0.00 0.14 0.12 91 1012.4
20190217051146 38 0 0.0 0.0 0.00 0.15 0.12 91 1012.6
20190217050946 38 0 0.0 0.0 0.00 0.15 0.12 92 1012.9
20190217050746 38 0 0.0 0.0 0.00 0.15 0.12 92 1013.0
20190217050546 38 0 0.0 0.0 0.00 0.16 0.12 92 1013.1
20190217050346 38 0 0.0 0.0 0.00 0.16 0.12 93 1012.9
20190217050146 38 0 0.0 0.0 0.00 0.17 0.12 92 1012.8
20190217045946 38 0 0.0 0.0 0.00 0.17 0.12 92 1012.8
20190217045746 38 0 0.0 0.0 0.00 0.18 0.12 91 1012.9
20190217045546 38 0 0.0 0.0 0.00 0.18 0.12 91 1013.0
20190217045347 38 0 0.0 0.0 0.00 0.18 0.12 91 1013.1
20190217045146 38 0 0.0 0.0 0.00 0.18 0.12 91 1013.2
20190217044946 38 0 0.0 0.0 0.00 0.19 0.12 91 1013.3
20190217044746 38 0 0.0 0.0 0.00 0.19 0.12 91 1013.5
20190217044546 38 0 0.0 0.0 0.00 0.19 0.12 90 1013.7
20190217044346 38 0 0.0 0.0 0.00 0.20 0.12 90 1013.7
20190217044145 38 0 0.0 0.0 0.00 0.20 0.12 90 1013.8
20190217043945 38 0 0.0 0.0 0.00 0.20 0.12 90 1013.7
20190217043746 38 0 0.0 0.0 0.00 0.21 0.12 90 1013.6
20190217043545 38 0 0.0 0.0 0.00 0.21 0.12 90 1013.6
20190217043346 38 0 0.0 0.0 0.00 0.21 0.12 90 1013.8
20190217043146 38 0 0.0 0.0 0.00 0.22 0.12 89 1013.9
20190217042946 38 0 0.0 0.0 0.00 0.22 0.12 89 1013.9
20190217042746 38 0 0.0 0.0 0.00 0.23 0.12 89 1014.0
20190217042546 38 0 0.0 0.0 0.00 0.24 0.12 89 1013.9
20190217042346 38 0 0.0 0.0 0.00 0.25 0.12 89 1014.1
20190217042147 38 0 0.0 0.0 0.00 0.25 0.12 89 1014.1
20190217041946 38 0 0.0 0.0 0.00 0.26 0.12 89 1013.8
20190217041746 38 0 0.0 0.0 0.00 0.26 0.12 89 1013.8
20190217041546 38 0 0.0 0.0 0.00 0.26 0.12 89 1013.7
20190217041346 38 0 0.0 0.0 0.00 0.27 0.12 89 1013.8
20190217041146 38 0 0.0 0.0 0.00 0.27 0.12 88 1013.8
20190217040946 38 0 0.0 0.0 0.00 0.27 0.12 88 1013.7
20190217040746 38 0 0.0 0.0 0.00 0.28 0.12 88 1013.7
20190217040546 38 0 0.0 0.0 0.00 0.28 0.12 88 1013.6
20190217040346 38 0 0.0 0.0 0.00 0.28 0.12 88 1013.5
20190217040146 38 92 0.0 1.0 0.00 0.29 0.12 88 1013.2
20190217035946 38 92 0.0 1.0 0.00 0.29 0.12 88 1012.9
20190217035746 38 92 0.0 1.0 0.00 0.30 0.12 88 1012.8
20190217035545 38 92 0.0 1.0 0.00 0.30 0.12 88 1012.8
20190217035346 38 92 0.0 3.0 0.00 0.31 0.12 88 1012.9
20190217035146 38 91 0.0 3.0 0.00 0.32 0.12 88 1013.0
20190217034945 38 90 0.0 3.0 0.00 0.32 0.12 88 1012.9
20190217034746 38 90 1.0 5.0 0.00 0.32 0.12 88 1012.8
20190217034546 38 90 1.0 5.0 0.00 0.33 0.12 88 1012.7
20190217034346 38 90 1.0 5.0 0.00 0.33 0.12 88 1012.6
20190217034145 38 91 1.0 5.0 0.00 0.33 0.12 88 1012.5
20190217033945 38 92 1.0 5.0 0.00 0.33 0.12 88 1012.6
20190217033745 38 86 1.0 6.0 0.00 0.34 0.12 88 1012.7
20190217033546 38 85 1.0 6.0 0.00 0.34 0.12 88 1012.5
20190217033346 38 85 1.0 6.0 0.00 0.34 0.12 88 1012.5
20190217033146 38 81 1.0 7.0 0.00 0.34 0.12 88 1012.5
20190217032946 38 80 1.0 7.0 0.00 0.35 0.12 88 1012.6
20190217032746 38 82 1.0 7.0 0.00 0.35 0.12 88 1012.7
20190217032547 38 82 1.0 7.0 0.00 0.35 0.12 88 1012.6
20190217032346 38 80 1.0 7.0 0.00 0.35 0.12 88 1012.5
20190217032146 38 81 0.0 6.0 0.00 0.36 0.12 88 1012.5
20190217031946 38 80 0.0 6.0 0.00 0.36 0.12 88 1012.6
20190217031746 38 75 0.0 3.0 0.00 0.36 0.12 88 1012.6
20190217031546 38 74 0.0 3.0 0.00 0.37 0.12 88 1012.7
20190217031346 38 74 0.0 3.0 0.00 0.37 0.12 88 1012.7
20190217031147 38 74 0.0 4.0 0.00 0.38 0.12 87 1012.7
20190217030947 38 74 0.0 4.0 0.00 0.38 0.12 87 1012.9
20190217030747 38 74 0.0 4.0 0.00 0.38 0.12 87 1013.0
20190217030547 38 74 0.0 4.0 0.00 0.39 0.12 87 1013.1
20190217030347 38 74 0.0 4.0 0.00 0.39 0.12 87 1013.0
20190217030146 38 73 0.0 3.0 0.00 0.39 0.12 87 1012.9
20190217025947 38 73 0.0 3.0 0.00 0.39 0.12 87 1012.9
20190217025748 38 73 0.0 3.0 0.00 0.40 0.12 87 1013.0
20190217025546 38 73 0.0 3.0 0.00 0.40 0.12 87 1013.0
20190217025347 38 73 0.0 3.0 0.00 0.40 0.12 87 1013.0
20190217025146 38 73 1.0 3.0 0.00 0.41 0.12 86 1013.1
20190217024946 38 73 1.0 4.0 0.00 0.41 0.12 86 1013.1
20190217024747 38 74 1.0 4.0 0.00 0.41 0.12 86 1013.1
20190217024547 38 74 1.0 4.0 0.00 0.42 0.12 86 1013.2
20190217024346 38 74 1.0 4.0 0.00 0.42 0.12 86 1013.3
20190217024147 38 74 1.0 5.0 0.00 0.43 0.12 86 1013.2
20190217023946 38 74 1.0 5.0 0.00 0.43 0.12 85 1013.1
20190217023746 38 75 1.0 5.0 0.00 0.44 0.12 85 1013.1
20190217023547 38 75 1.0 5.0 0.00 0.45 0.12 85 1013.1
20190217023347 39 75 1.0 5.0 0.00 0.45 0.12 85 1013.3
20190217023147 39 75 1.0 5.0 0.00 0.45 0.12 85 1013.4
20190217022947 39 75 1.0 3.0 0.00 0.46 0.12 85 1013.3
20190217022747 39 75 1.0 4.0 0.00 0.46 0.12 85 1013.3
20190217022546 39 75 1.0 4.0 0.00 0.47 0.12 85 1013.2
20190217022347 39 75 1.0 4.0 0.00 0.47 0.12 85 1013.3
20190217022147 38 75 1.0 4.0 0.00 0.48 0.12 85 1013.3
20190217021947 38 75 1.0 4.0 0.00 0.48 0.12 85 1013.3
20190217021747 38 75 1.0 4.0 0.00 0.49 0.12 85 1013.3
20190217021546 38 75 0.0 4.0 0.00 0.49 0.12 85 1013.2
20190217021346 38 75 0.0 4.0 0.00 0.50 0.12 85 1013.2
20190217021146 38 75 0.0 4.0 0.00 0.51 0.12 85 1013.3
20190217020947 38 75 0.0 2.0 0.00 0.51 0.12 85 1013.4
20190217020746 38 75 0.0 2.0 0.00 0.52 0.12 85 1013.5
20190217020546 38 75 0.0 2.0 0.00 0.53 0.12 86 1013.4
20190217020346 38 0 0.0 0.0 0.00 0.53 0.12 85 1013.4
20190217020147 38 0 0.0 0.0 0.00 0.54 0.12 86 1013.6
20190217015946 38 0 0.0 0.0 0.00 0.54 0.12 86 1013.8
20190217015746 38 0 0.0 0.0 0.00 0.54 0.12 85 1013.9
20190217015546 38 0 0.0 0.0 0.00 0.55 0.12 86 1013.8
20190217015346 38 0 0.0 0.0 0.00 0.55 0.12 85 1013.9
20190217015146 39 0 0.0 0.0 0.00 0.55 0.12 85 1014.0
20190217014946 39 75 0.0 2.0 0.00 0.55 0.12 85 1014.0
20190217014746 39 75 0.0 2.0 0.00 0.56 0.12 85 1014.1
20190217014546 39 75 0.0 2.0 0.00 0.56 0.12 84 1014.0
20190217014350 39 75 0.0 2.0 0.00 0.56 0.12 85 1013.9
20190217014146 39 75 0.0 2.0 0.00 0.56 0.12 85 1013.8
20190217013946 39 75 0.0 1.0 0.00 0.56 0.12 85 1013.7
20190217013746 39 75 0.0 2.0 0.00 0.56 0.12 85 1013.6
20190217013546 39 75 0.0 2.0 0.00 0.57 0.12 85 1013.7
20190217013346 39 75 0.0 2.0 0.00 0.57 0.12 84 1013.7
20190217013146 39 75 0.0 2.0 0.00 0.57 0.12 84 1013.7
20190217012948 39 75 0.0 2.0 0.00 0.57 0.12 84 1013.8
20190217012748 39 75 0.0 2.0 0.00 0.57 0.12 84 1013.8
20190217012547 39 75 0.0 2.0 0.00 0.57 0.12 84 1013.9
20190217012347 39 75 0.0 2.0 0.00 0.58 0.12 84 1013.9
20190217012147 39 75 0.0 1.0 0.00 0.58 0.12 84 1013.9
20190217011947 39 0 0.0 0.0 0.00 0.58 0.12 84 1014.0
20190217011747 39 0 0.0 0.0 0.00 0.58 0.12 84 1014.1
20190217011547 39 0 0.0 0.0 0.00 0.58 0.12 84 1014.1
20190217011347 39 0 0.0 0.0 0.00 0.58 0.12 84 1014.1
20190217011147 39 0 0.0 0.0 0.00 0.58 0.12 84 1014.3
20190217010947 39 0 0.0 0.0 0.00 0.59 0.12 84 1014.3
20190217010746 39 0 0.0 0.0 0.00 0.59 0.12 84 1014.2
20190217010547 39 0 0.0 0.0 0.00 0.59 0.12 84 1014.2
20190217010346 39 75 0.0 1.0 0.00 0.59 0.12 84 1014.1
20190217010146 39 75 0.0 1.0 0.00 0.59 0.12 84 1014.1
20190217005946 39 75 0.0 3.0 0.00 0.59 0.12 84 1014.1
20190217005746 39 75 0.0 3.0 0.00 0.60 0.12 84 1014.0
20190217005546 39 75 0.0 3.0 0.00 0.60 0.12 84 1014.0
20190217005346 39 75 0.0 5.0 0.00 0.60 0.12 84 1013.9
20190217005146 39 75 0.0 5.0 0.00 0.60 0.12 84 1013.9
20190217004946 39 75 0.0 5.0 0.00 0.60 0.12 84 1013.8
20190217004746 39 75 0.0 5.0 0.00 0.60 0.12 84 1013.7
20190217004546 39 75 0.0 5.0 0.00 0.60 0.12 84 1013.7
20190217004346 40 75 0.0 2.0 0.00 0.60 0.12 84 1013.7
20190217004146 40 75 0.0 2.0 0.00 0.61 0.12 84 1013.6
20190217003947 40 75 0.0 3.0 0.00 0.61 0.12 84 1013.6
20190217003746 40 75 0.0 3.0 0.00 0.61 0.12 84 1013.7
20190217003546 40 75 0.0 3.0 0.00 0.61 0.12 84 1013.6
20190217003346 40 75 0.0 3.0 0.00 0.61 0.12 84 1013.7
20190217003146 40 75 0.0 3.0 0.00 0.61 0.12 84 1013.6
20190217002946 40 75 0.0 4.0 0.00 0.62 0.12 84 1013.6
20190217002746 40 75 0.0 4.0 0.00 0.62 0.12 84 1013.6
20190217002546 40 75 1.0 4.0 0.00 0.62 0.12 84 1013.4
20190217002346 40 75 1.0 4.0 0.00 0.62 0.12 84 1013.3
20190217002146 40 76 0.0 5.0 0.00 0.62 0.12 84 1013.3
20190217001946 40 76 0.0 5.0 0.00 0.62 0.12 84 1013.5
20190217001746 40 76 0.0 5.0 0.00 0.62 0.12 84 1013.6
20190217001546 40 76 0.0 5.0 0.00 0.62 0.12 84 1013.6
20190217001346 40 76 0.0 5.0 0.00 0.63 0.12 84 1013.7
20190217001146 40 76 0.0 3.0 0.00 0.63 0.12 84 1013.7
20190217000946 40 76 0.0 4.0 0.00 0.63 0.12 84 1013.6
20190217000748 40 74 0.0 4.0 0.00 0.63 0.12 84 1013.6
20190217000546 40 72 0.0 4.0 0.00 0.63 0.12 84 1013.6
20190217000346 40 72 0.0 4.0 0.00 0.63 0.12 83 1013.6
20190217000146 40 71 0.0 4.0 0.00 0.63 0.12 83 1013.7
20190216235946 40 69 0.0 3.0 0.00 0.63 0.12 83 1013.7
20190216235746 40 69 1.0 3.0 0.00 0.64 0.12 83 1013.7
20190216235546 40 69 1.0 3.0 0.00 0.64 0.12 83 1013.6
20190216235346 40 69 1.0 4.0 0.00 0.64 0.12 82 1013.6
20190216235146 40 69 1.0 4.0 0.00 0.64 0.12 82 1013.7
20190216234946 41 69 1.0 4.0 0.00 0.64 0.12 82 1013.7
20190216234746 41 69 1.0 4.0 0.00 0.64 0.12 82 1013.7
20190216234546 41 69 1.0 5.0 0.00 0.64 0.12 81 1013.6
20190216234346 41 70 1.0 5.0 0.00 0.64 0.12 82 1013.7
20190216234146 41 71 1.0 5.0 0.00 0.64 0.12 81 1013.6
20190216233946 41 73 1.0 5.0 0.00 0.64 0.12 81 1013.7
20190216233746 41 74 0.0 5.0 0.00 0.64 0.12 81 1013.7
20190216233546 41 76 0.0 5.0 0.00 0.64 0.12 81 1013.8
20190216233346 41 77 0.0 5.0 0.00 0.64 0.12 81 1013.8
20190216233146 41 81 1.0 3.0 0.00 0.64 0.12 81 1013.8
20190216232947 41 65 1.0 5.0 0.00 0.65 0.12 81 1013.8
20190216232747 41 75 1.0 6.0 0.00 0.65 0.12 81 1013.7
20190216232547 41 78 1.0 6.0 0.00 0.65 0.12 81 1013.7
20190216232346 41 76 1.0 7.0 0.00 0.65 0.12 81 1013.7
20190216232146 41 76 1.0 8.0 0.00 0.65 0.12 81 1013.7
20190216231946 41 81 1.0 8.0 0.00 0.65 0.12 81 1013.7
20190216231746 41 83 1.0 8.0 0.00 0.65 0.12 81 1013.6
20190216231546 41 79 1.0 8.0 0.00 0.65 0.12 80 1013.6
20190216231346 41 82 1.0 8.0 0.00 0.65 0.12 80 1013.6
20190216231147 41 79 1.0 5.0 0.00 0.65 0.12 80 1013.7
20190216230947 41 78 1.0 5.0 0.00 0.65 0.12 80 1013.7
20190216230747 41 68 2.0 5.0 0.00 0.65 0.12 80 1013.6
20190216230546 41 65 2.0 5.0 0.00 0.65 0.12 80 1013.7
20190216230346 41 71 2.0 7.0 0.00 0.65 0.12 80 1013.7
20190216230146 41 72 2.0 8.0 0.00 0.65 0.12 80 1013.7
20190216225946 41 69 2.0 8.0 0.00 0.65 0.12 79 1013.7
20190216225747 41 68 2.0 8.0 0.00 0.65 0.12 79 1013.8
20190216225547 41 70 1.0 8.0 0.00 0.65 0.12 79 1013.8
20190216225347 41 68 1.0 8.0 0.00 0.65 0.12 79 1013.8
20190216225147 41 67 1.0 8.0 0.00 0.65 0.12 79 1013.8
20190216224947 41 69 1.0 8.0 0.00 0.65 0.12 79 1013.8
20190216224747 42 76 2.0 7.0 0.00 0.65 0.12 80 1013.9
20190216224547 42 78 2.0 7.0 0.00 0.65 0.12 80 1013.9
20190216224347 42 82 3.0 7.0 0.00 0.65 0.12 80 1013.9
20190216224147 42 74 3.0 8.0 0.00 0.65 0.12 79 1014.0
20190216223947 42 72 3.0 8.0 0.00 0.65 0.12 79 1014.0
20190216223746 42 72 2.0 8.0 0.00 0.65 0.12 79 1014.0
20190216223546 42 71 2.0 8.0 0.00 0.65 0.12 78 1014.0
20190216223346 42 70 2.0 8.0 0.00 0.65 0.12 78 1014.1
20190216223146 42 74 2.0 8.0 0.00 0.65 0.12 80 1014.1
20190216222946 42 79 2.0 7.0 0.00 0.65 0.12 80 1014.0
20190216222747 42 70 2.0 7.0 0.00 0.65 0.12 79 1014.1
20190216222547 42 68 2.0 7.0 0.00 0.65 0.12 79 1014.2
20190216222347 42 66 2.0 7.0 0.00 0.65 0.12 81 1014.1
20190216222146 42 63 2.0 7.0 0.00 0.65 0.12 80 1014.0
20190216221946 42 64 2.0 7.0 0.00 0.65 0.12 79 1014.0
20190216221746 42 63 2.0 7.0 0.00 0.65 0.12 79 1013.9
20190216221547 42 58 2.0 7.0 0.00 0.65 0.12 79 1013.9
20190216221347 42 54 2.0 7.0 0.00 0.65 0.12 80 1013.9
20190216221147 42 51 1.0 8.0 0.00 0.65 0.12 79 1013.9
20190216220947 42 50 1.0 8.0 0.00 0.65 0.12 80 1013.9
20190216220747 42 51 1.0 8.0 0.00 0.65 0.12 80 1013.9
20190216220547 42 53 0.0 8.0 0.00 0.66 0.12 80 1013.9
20190216220346 43 59 0.0 8.0 0.00 0.66 0.12 80 1013.8
20190216220146 43 72 1.0 5.0 0.00 0.66 0.12 80 1013.8
20190216215946 43 74 1.0 4.0 0.00 0.66 0.12 80 1013.9
20190216215746 42 75 1.0 5.0 0.00 0.66 0.12 81 1014.0
20190216215546 42 83 1.0 5.0 0.00 0.66 0.12 81 1014.0
20190216215346 42 86 1.0 5.0 0.01 0.66 0.12 81 1014.1
20190216215146 42 91 1.0 5.0 0.01 0.66 0.12 80 1014.0
20190216214947 42 96 1.0 5.0 0.01 0.66 0.12 79 1014.0
20190216214746 42 91 1.0 5.0 0.01 0.66 0.12 81 1014.1
20190216214546 42 86 1.0 5.0 0.01 0.66 0.12 81 1014.1
20190216214346 42 77 1.0 7.0 0.01 0.66 0.12 80 1014.1
20190216214147 42 68 2.0 7.0 0.01 0.66 0.12 81 1014.1
20190216213946 42 61 2.0 7.0 0.01 0.66 0.12 80 1014.1
20190216213746 42 55 2.0 7.0 0.01 0.66 0.12 81 1014.1
20190216213546 42 51 2.0 7.0 0.01 0.66 0.12 81 1014.0
20190216213347 42 49 2.0 6.0 0.01 0.66 0.12 81 1014.1
20190216213147 42 51 1.0 6.0 0.01 0.66 0.12 81 1014.1
20190216212946 42 55 1.0 6.0 0.01 0.66 0.12 81 1014.1
20190216212747 42 64 1.0 6.0 0.01 0.66 0.12 81 1014.1
20190216212547 42 74 1.0 6.0 0.01 0.66 0.12 81 1014.0
20190216212347 42 77 1.0 6.0 0.01 0.66 0.12 81 1014.0
20190216212147 42 75 1.0 6.0 0.01 0.66 0.12 80 1014.1
20190216211947 42 70 2.0 6.0 0.01 0.66 0.12 79 1014.1
20190216211747 42 55 2.0 5.0 0.01 0.66 0.12 81 1014.1
20190216211547 42 50 2.0 8.0 0.01 0.66 0.12 82 1014.1
20190216211347 42 48 2.0 8.0 0.01 0.66 0.12 81 1014.1
20190216211147 42 50 2.0 8.0 0.01 0.66 0.12 80 1014.1
20190216210947 42 54 1.0 8.0 0.01 0.66 0.12 81 1014.1
20190216210747 42 56 1.0 8.0 0.01 0.66 0.12 80 1014.2
20190216210547 42 60 1.0 7.0 0.01 0.66 0.12 80 1014.1
20190216210348 42 61 2.0 7.0 0.01 0.66 0.12 80 1014.0
20190216210147 43 60 2.0 7.0 0.02 0.66 0.12 79 1013.9
20190216205947 43 59 2.0 7.0 0.02 0.66 0.12 80 1014.0
20190216205747 43 58 3.0 8.0 0.02 0.66 0.12 81 1014.0
20190216205547 43 59 3.0 9.0 0.02 0.66 0.12 82 1013.9
20190216205347 42 61 2.0 9.0 0.01 0.65 0.11 82 1013.9
20190216205147 42 63 2.0 9.0 0.01 0.65 0.11 81 1013.9
20190216204947 42 63 2.0 9.0 0.01 0.65 0.11 79 1013.9
20190216204747 42 69 2.0 9.0 0.01 0.65 0.11 81 1013.8
20190216204547 43 73 2.0 8.0 0.01 0.65 0.11 81 1013.8
20190216204347 43 67 3.0 9.0 0.01 0.65 0.11 81 1013.7
20190216204146 42 59 3.0 9.0 0.01 0.65 0.11 81 1013.7
20190216203947 42 54 3.0 9.0 0.01 0.65 0.11 81 1013.6
20190216203747 42 51 2.0 9.0 0.01 0.65 0.11 82 1013.6
20190216203547 42 50 2.0 9.0 0.01 0.65 0.11 82 1013.6
20190216203347 42 53 2.0 8.0 0.02 0.65 0.11 82 1013.5
20190216203147 42 56 1.0 8.0 0.02 0.65 0.11 82 1013.4
20190216202947 42 62 1.0 8.0 0.02 0.65 0.11 81 1013.6
20190216202747 42 71 1.0 7.0 0.02 0.65 0.11 82 1013.7
20190216202547 42 83 2.0 8.0 0.02 0.65 0.11 81 1013.8
20190216202347 42 83 2.0 8.0 0.02 0.65 0.11 82 1013.7
20190216202147 42 86 3.0 8.0 0.02 0.65 0.11 82 1013.6
20190216201947 42 87 3.0 8.0 0.02 0.65 0.11 82 1013.6
20190216201747 42 77 3.0 8.0 0.02 0.65 0.11 81 1013.5
20190216201547 42 70 3.0 8.0 0.02 0.65 0.11 81 1013.6
20190216201347 42 64 3.0 8.0 0.02 0.65 0.11 81 1013.6
20190216201147 42 60 3.0 8.0 0.02 0.65 0.11 81 1013.7
20190216200947 42 57 3.0 8.0 0.02 0.65 0.11 81 1013.7
20190216200747 42 58 3.0 9.0 0.02 0.65 0.11 81 1013.6
20190216200547 42 58 3.0 9.0 0.02 0.65 0.11 82 1013.5
20190216200346 42 63 3.0 9.0 0.02 0.65 0.11 82 1013.5
20190216200147 42 65 3.0 9.0 0.02 0.64 0.10 81 1013.6
20190216195947 42 66 3.0 9.0 0.02 0.64 0.10 81 1013.6
20190216195747 42 64 3.0 9.0 0.02 0.64 0.10 83 1013.7
20190216195547 42 59 3.0 10.0 0.02 0.64 0.10 82 1013.7
20190216195347 42 58 3.0 10.0 0.02 0.64 0.10 83 1013.6
20190216195147 42 56 3.0 10.0 0.02 0.64 0.10 82 1013.6
20190216194947 42 50 3.0 10.0 0.02 0.64 0.10 83 1013.7
20190216194747 41 51 3.0 10.0 0.02 0.64 0.10 83 1013.8
20190216194547 41 53 3.0 10.0 0.02 0.64 0.10 82 1013.8
20190216194346 41 53 3.0 10.0 0.02 0.64 0.10 85 1013.8
20190216194147 41 55 4.0 10.0 0.02 0.64 0.10 85 1013.9
20190216193947 41 56 4.0 10.0 0.02 0.64 0.10 84 1013.9
20190216193746 41 58 4.0 10.0 0.03 0.64 0.10 84 1013.9
20190216193546 41 57 5.0 10.0 0.02 0.63 0.09 84 1013.8
20190216193346 41 52 5.0 11.0 0.02 0.63 0.09 83 1013.9
20190216193147 41 48 5.0 11.0 0.02 0.63 0.09 84 1013.9
20190216192946 41 48 5.0 11.0 0.02 0.63 0.09 84 1013.8
20190216192746 41 43 5.0 12.0 0.02 0.63 0.09 84 1013.8
20190216192546 40 45 5.0 12.0 0.02 0.63 0.09 84 1013.8
20190216192347 40 47 5.0 12.0 0.02 0.63 0.09 83 1013.7
20190216192147 40 50 5.0 12.0 0.02 0.63 0.09 85 1013.8
20190216191947 40 48 5.0 12.0 0.02 0.63 0.09 85 1013.8
20190216191747 40 50 4.0 14.0 0.02 0.63 0.09 84 1013.9
20190216191547 40 48 4.0 14.0 0.02 0.63 0.09 84 1014.0
20190216191347 40 45 4.0 14.0 0.03 0.63 0.09 85 1014.0
20190216191147 40 41 3.0 14.0 0.03 0.63 0.09 85 1014.1
20190216190947 40 44 3.0 14.0 0.03 0.63 0.09 84 1014.2
20190216190748 40 48 2.0 11.0 0.03 0.63 0.09 84 1014.3
20190216190547 40 48 2.0 9.0 0.03 0.63 0.09 85 1014.4
20190216190347 40 51 2.0 9.0 0.03 0.63 0.09 86 1014.5
20190216190147 40 56 2.0 9.0 0.02 0.62 0.08 83 1014.6
20190216185947 40 54 3.0 9.0 0.02 0.62 0.08 84 1014.6
20190216185748 40 45 3.0 8.0 0.03 0.62 0.08 85 1014.6
20190216185547 40 40 3.0 9.0 0.03 0.62 0.08 85 1014.5
20190216185346 40 39 2.0 9.0 0.03 0.62 0.08 86 1014.6
20190216185147 40 34 2.0 9.0 0.03 0.62 0.08 85 1014.9
20190216184947 40 36 2.0 9.0 0.03 0.62 0.08 85 1015.0
20190216184746 40 39 2.0 9.0 0.03 0.62 0.08 85 1015.0
20190216184547 40 39 2.0 7.0 0.03 0.62 0.08 87 1015.0
20190216184346 40 41 2.0 7.0 0.03 0.62 0.08 87 1015.1
20190216184147 39 44 2.0 8.0 0.03 0.62 0.08 88 1015.2
20190216183947 39 38 2.0 8.0 0.03 0.62 0.08 86 1015.2
20190216183747 39 26 2.0 9.0 0.02 0.61 0.08 87 1015.2
20190216183546 39 19 2.0 9.0 0.02 0.61 0.07 87 1015.2
20190216183347 39 18 2.0 9.0 0.02 0.61 0.07 86 1015.2
20190216183147 39 12 2.0 9.0 0.02 0.61 0.07 87 1015.3
20190216182947 39 14 2.0 9.0 0.02 0.61 0.07 87 1015.2
20190216182747 39 19 2.0 7.0 0.02 0.61 0.07 86 1015.2
20190216182546 39 34 2.0 8.0 0.03 0.61 0.07 87 1015.2
20190216182347 39 35 2.0 8.0 0.03 0.61 0.07 87 1015.3
20190216182147 39 44 2.0 8.0 0.03 0.61 0.07 87 1015.3
20190216181946 39 48 3.0 8.0 0.03 0.61 0.07 87 1015.4
20190216181746 39 57 3.0 8.0 0.03 0.61 0.07 87 1015.4
20190216181547 39 69 3.0 8.0 0.02 0.60 0.06 88 1015.4
20190216181348 38 60 4.0 8.0 0.02 0.60 0.06 87 1015.4
20190216181147 38 46 4.0 8.0 0.02 0.60 0.06 88 1015.3
20190216180947 38 45 4.0 9.0 0.02 0.60 0.06 87 1015.3
20190216180747 38 42 4.0 9.0 0.02 0.60 0.06 87 1015.3
20190216180546 38 41 4.0 9.0 0.02 0.60 0.06 88 1015.5
20190216180346 38 44 4.0 9.0 0.03 0.60 0.06 89 1015.5
20190216180147 38 49 3.0 9.0 0.03 0.60 0.06 88 1015.4
20190216175947 38 47 3.0 9.0 0.02 0.59 0.05 89 1015.4
20190216175747 38 46 2.0 9.0 0.02 0.59 0.05 88 1015.3
20190216175547 38 44 2.0 9.0 0.02 0.59 0.05 88 1015.3
20190216175347 38 37 3.0 9.0 0.02 0.59 0.05 90 1015.4
20190216175148 37 35 3.0 9.0 0.02 0.59 0.05 90 1015.5
20190216174947 37 36 3.0 8.0 0.02 0.59 0.05 90 1015.6
20190216174747 37 38 4.0 8.0 0.02 0.59 0.05 90 1015.6
20190216174547 37 44 4.0 11.0 0.02 0.59 0.05 88 1015.7
20190216174347 37 44 4.0 11.0 0.02 0.59 0.05 88 1015.8
20190216174147 37 45 3.0 11.0 0.02 0.59 0.05 89 1015.9
20190216173947 37 41 3.0 11.0 0.02 0.59 0.05 89 1016.0
20190216173747 37 43 3.0 11.0 0.02 0.59 0.05 88 1015.9
20190216173547 37 38 3.0 9.0 0.02 0.59 0.05 89 1015.9
20190216173347 37 36 2.0 7.0 0.03 0.59 0.05 89 1016.0
20190216173147 37 26 2.0 8.0 0.03 0.59 0.05 90 1016.3